Time,TemperatureF,DewpointF,PressureIn,WindDirection,WindDirectionDegrees,WindSpeedMPH,WindSpeedGustMPH,Humidity,HourlyPrecipIn,Conditions,Clouds,dailyrainin,SoftwareType,DateUTC
2013-03-11 00:00:00,63.1,57.2,30.13,East,79,0.0,2.0,81,0.00,,---,0.00,VWS V14.01,2013-03-11 04:00:00,
2013-03-11 00:05:00,63.3,57.4,30.13,ESE,102,0.0,1.0,81,0.00,,---,0.00,VWS V14.01,2013-03-11 04:05:00,
2013-03-11 00:10:00,63.2,57.3,30.13,ESE,102,0.0,1.0,81,0.00,,---,0.00,VWS V14.01,2013-03-11 04:10:00,
2013-03-11 00:15:00,62.9,57.0,30.13,ESE,102,0.0,1.0,81,0.00,,---,0.00,VWS V14.01,2013-03-11 04:15:00,
2013-03-11 00:20:00,62.7,57.1,30.13,ESE,102,0.0,1.0,82,0.00,,---,0.00,VWS V14.01,2013-03-11 04:20:00,
2013-03-11 00:25:00,62.8,57.2,30.12,East,82,0.0,2.0,82,0.00,,---,0.00,VWS V14.01,2013-03-11 04:25:00,
2013-03-11 00:31:00,62.8,57.2,30.12,East,80,0.0,2.0,82,0.00,,---,0.00,VWS V14.01,2013-03-11 04:31:00,
2013-03-11 00:36:00,62.9,57.7,30.12,ENE,73,1.0,2.0,83,0.00,,---,0.00,VWS V14.01,2013-03-11 04:36:00,
2013-03-11 00:41:00,63.1,57.5,30.12,East,80,0.0,2.0,82,0.00,,---,0.00,VWS V14.01,2013-03-11 04:41:00,
2013-03-11 00:46:00,63.2,57.6,30.12,ESE,122,0.0,3.0,82,0.00,,---,0.00,VWS V14.01,2013-03-11 04:46:00,
2013-03-11 00:51:00,63.0,57.4,30.12,ESE,122,0.0,3.0,82,0.00,,---,0.00,VWS V14.01,2013-03-11 04:51:00,
2013-03-11 00:56:00,62.9,57.3,30.12,ESE,122,0.0,3.0,82,0.00,,---,0.00,VWS V14.01,2013-03-11 04:56:00,
2013-03-11 01:01:00,62.9,57.3,30.12,East,84,0.0,3.0,82,0.00,,---,0.00,VWS V14.01,2013-03-11 05:01:00,
2013-03-11 01:06:00,62.7,57.1,30.11,East,84,0.0,0.0,82,0.00,,---,0.00,VWS V14.01,2013-03-11 05:06:00,
2013-03-11 01:11:00,62.4,57.2,30.11,East,84,0.0,0.0,83,0.00,,---,0.00,VWS V14.01,2013-03-11 05:11:00,
2013-03-11 01:16:00,62.1,56.9,30.12,East,84,0.0,0.0,83,0.00,,---,0.00,VWS V14.01,2013-03-11 05:16:00,
2013-03-11 01:22:00,61.6,56.4,30.11,East,84,0.0,0.0,83,0.00,,---,0.00,VWS V14.01,2013-03-11 05:22:00,
2013-03-11 01:27:00,61.3,56.4,30.11,East,84,0.0,0.0,84,0.00,,---,0.00,VWS V14.01,2013-03-11 05:27:00,
2013-03-11 01:32:00,61.0,56.5,30.11,East,84,0.0,0.0,85,0.00,,---,0.00,VWS V14.01,2013-03-11 05:32:00,
2013-03-11 01:37:00,60.7,56.5,30.11,East,84,0.0,0.0,86,0.00,,---,0.00,VWS V14.01,2013-03-11 05:37:00,
2013-03-11 01:42:00,60.8,56.9,30.10,East,84,0.0,0.0,87,0.00,,---,0.00,VWS V14.01,2013-03-11 05:42:00,
2013-03-11 01:47:00,60.8,56.6,30.10,East,84,0.0,1.0,86,0.00,,---,0.00,VWS V14.01,2013-03-11 05:47:00,
2013-03-11 01:52:00,60.7,56.8,30.10,East,84,0.0,1.0,87,0.00,,---,0.00,VWS V14.01,2013-03-11 05:52:00,
2013-03-11 01:57:00,60.7,56.5,30.10,East,84,0.0,1.0,86,0.00,,---,0.00,VWS V14.01,2013-03-11 05:57:00,
2013-03-11 02:02:00,60.3,56.4,30.10,East,84,0.0,0.0,87,0.00,,---,0.00,VWS V14.01,2013-03-11 06:02:00,
2013-03-11 02:07:00,59.9,56.3,30.10,East,84,0.0,0.0,88,0.00,,---,0.00,VWS V14.01,2013-03-11 06:07:00,
2013-03-11 02:12:00,59.5,56.0,30.10,East,84,0.0,0.0,88,0.00,,---,0.00,VWS V14.01,2013-03-11 06:12:00,
2013-03-11 02:17:00,59.1,55.5,30.10,East,84,0.0,0.0,88,0.00,,---,0.00,VWS V14.01,2013-03-11 06:17:00,
2013-03-11 02:22:00,58.8,55.6,30.10,East,84,0.0,0.0,89,0.00,,---,0.00,VWS V14.01,2013-03-11 06:22:00,
2013-03-11 02:27:00,58.3,55.1,30.10,East,83,0.0,0.0,89,0.00,,---,0.00,VWS V14.01,2013-03-11 06:27:00,
2013-03-11 02:33:00,57.8,54.6,30.09,East,84,0.0,0.0,89,0.00,,---,0.00,VWS V14.01,2013-03-11 06:33:00,
2013-03-11 02:38:00,57.6,54.7,30.09,East,84,0.0,0.0,90,0.00,,---,0.00,VWS V14.01,2013-03-11 06:38:00,
2013-03-11 02:43:00,57.8,55.2,30.09,East,84,0.0,0.0,91,0.00,,---,0.00,VWS V14.01,2013-03-11 06:43:00,
2013-03-11 02:48:00,57.7,55.1,30.09,East,84,0.0,0.0,91,0.00,,---,0.00,VWS V14.01,2013-03-11 06:48:00,
2013-03-11 02:53:00,57.3,54.7,30.08,East,84,0.0,0.0,91,0.00,,---,0.00,VWS V14.01,2013-03-11 06:53:00,
2013-03-11 02:58:00,56.9,54.3,30.08,East,83,0.0,0.0,91,0.00,,---,0.00,VWS V14.01,2013-03-11 06:58:00,
2013-03-11 03:03:00,57.0,54.7,30.08,East,84,0.0,0.0,92,0.00,,---,0.00,VWS V14.01,2013-03-11 07:03:00,
2013-03-11 03:08:00,57.1,55.1,30.08,East,83,0.0,0.0,93,0.00,,---,0.00,VWS V14.01,2013-03-11 07:08:00,
2013-03-11 03:13:00,57.0,55.0,30.08,East,84,0.0,0.0,93,0.00,,---,0.00,VWS V14.01,2013-03-11 07:13:00,
2013-03-11 03:18:00,56.7,54.4,30.07,East,84,0.0,0.0,92,0.00,,---,0.00,VWS V14.01,2013-03-11 07:18:00,
2013-03-11 03:23:00,56.5,54.5,30.07,East,84,0.0,0.0,93,0.00,,---,0.00,VWS V14.01,2013-03-11 07:23:00,
2013-03-11 03:28:00,56.7,55.0,30.07,East,84,0.0,0.0,94,0.00,,---,0.00,VWS V14.01,2013-03-11 07:28:00,
2013-03-11 03:33:00,56.8,55.1,30.07,East,84,0.0,0.0,94,0.00,,---,0.00,VWS V14.01,2013-03-11 07:33:00,
2013-03-11 03:38:00,56.7,55.0,30.07,East,84,0.0,0.0,94,0.00,,---,0.00,VWS V14.01,2013-03-11 07:38:00,
2013-03-11 03:44:00,56.6,54.9,30.07,East,84,0.0,0.0,94,0.00,,---,0.00,VWS V14.01,2013-03-11 07:44:00,
2013-03-11 03:49:00,56.5,54.8,30.07,East,84,0.0,0.0,94,0.00,,---,0.00,VWS V14.01,2013-03-11 07:49:00,
2013-03-11 03:54:00,56.3,54.6,30.07,East,84,0.0,0.0,94,0.00,,---,0.00,VWS V14.01,2013-03-11 07:54:00,
2013-03-11 03:59:00,56.2,54.5,30.07,East,84,0.0,0.0,94,0.00,,---,0.00,VWS V14.01,2013-03-11 07:59:00,
2013-03-11 04:04:00,55.8,54.1,30.06,East,84,0.0,0.0,94,0.00,,---,0.00,VWS V14.01,2013-03-11 08:04:00,
2013-03-11 04:09:00,55.5,53.8,30.06,East,83,0.0,0.0,94,0.00,,---,0.00,VWS V14.01,2013-03-11 08:09:00,
2013-03-11 04:14:00,55.3,53.6,30.06,East,84,0.0,0.0,94,0.00,,---,0.00,VWS V14.01,2013-03-11 08:14:00,
2013-03-11 04:19:00,55.0,53.3,30.06,East,84,0.0,0.0,94,0.00,,---,0.00,VWS V14.01,2013-03-11 08:19:00,
2013-03-11 04:24:00,54.9,53.2,30.06,East,84,0.0,0.0,94,0.00,,---,0.00,VWS V14.01,2013-03-11 08:24:00,
2013-03-11 04:29:00,54.9,53.5,30.06,East,84,0.0,0.0,95,0.00,,---,0.00,VWS V14.01,2013-03-11 08:29:00,
2013-03-11 04:34:00,55.0,53.6,30.05,East,83,0.0,0.0,95,0.00,,---,0.00,VWS V14.01,2013-03-11 08:34:00,
2013-03-11 04:39:00,55.0,53.6,30.05,East,84,0.0,0.0,95,0.00,,---,0.00,VWS V14.01,2013-03-11 08:39:00,
2013-03-11 04:45:00,55.1,54.0,30.05,East,84,0.0,0.0,96,0.00,,---,0.00,VWS V14.01,2013-03-11 08:45:00,
2013-03-11 04:50:00,55.2,54.1,30.05,East,84,0.0,0.0,96,0.00,,---,0.00,VWS V14.01,2013-03-11 08:50:00,
2013-03-11 04:55:00,55.4,54.3,30.05,East,84,0.0,0.0,96,0.00,,---,0.00,VWS V14.01,2013-03-11 08:55:00,
2013-03-11 05:00:00,55.4,54.3,30.05,East,84,0.0,0.0,96,0.00,,---,0.00,VWS V14.01,2013-03-11 09:00:00,
2013-03-11 05:05:00,55.6,54.5,30.05,East,84,0.0,0.0,96,0.00,,---,0.00,VWS V14.01,2013-03-11 09:05:00,
2013-03-11 05:10:00,55.6,54.5,30.05,East,84,0.0,0.0,96,0.00,,---,0.00,VWS V14.01,2013-03-11 09:10:00,
2013-03-11 05:15:00,55.5,54.1,30.05,East,84,0.0,0.0,95,0.00,,---,0.00,VWS V14.01,2013-03-11 09:15:00,
2013-03-11 05:20:00,55.5,54.1,30.05,East,83,0.0,0.0,95,0.00,,---,0.00,VWS V14.01,2013-03-11 09:20:00,
2013-03-11 05:25:00,55.4,54.3,30.05,East,84,0.0,0.0,96,0.00,,---,0.00,VWS V14.01,2013-03-11 09:25:00,
2013-03-11 05:30:00,55.3,54.2,30.05,East,84,0.0,0.0,96,0.00,,---,0.00,VWS V14.01,2013-03-11 09:30:00,
2013-03-11 05:35:00,55.3,54.2,30.05,East,83,0.0,0.0,96,0.00,,---,0.00,VWS V14.01,2013-03-11 09:35:00,
2013-03-11 05:40:00,55.2,54.1,30.05,East,84,0.0,0.0,96,0.00,,---,0.00,VWS V14.01,2013-03-11 09:40:00,
2013-03-11 05:45:00,55.1,54.0,30.05,East,84,0.0,0.0,96,0.00,,---,0.00,VWS V14.01,2013-03-11 09:45:00,
2013-03-11 05:50:00,54.9,53.8,30.05,East,84,0.0,0.0,96,0.00,,---,0.00,VWS V14.01,2013-03-11 09:50:00,
2013-03-11 05:56:00,55.0,53.9,30.05,East,84,0.0,0.0,96,0.00,,---,0.00,VWS V14.01,2013-03-11 09:56:00,
2013-03-11 06:01:00,55.0,53.9,30.05,East,84,0.0,0.0,96,0.00,,---,0.00,VWS V14.01,2013-03-11 10:01:00,
2013-03-11 06:06:00,54.9,53.8,30.05,East,84,0.0,0.0,96,0.00,,---,0.00,VWS V14.01,2013-03-11 10:06:00,
2013-03-11 06:11:00,54.9,53.8,30.05,East,84,0.0,0.0,96,0.00,,---,0.00,VWS V14.01,2013-03-11 10:11:00,
2013-03-11 06:16:00,54.8,53.7,30.05,East,84,0.0,0.0,96,0.00,,---,0.00,VWS V14.01,2013-03-11 10:16:00,
2013-03-11 06:22:00,54.8,53.7,30.05,East,84,0.0,0.0,96,0.00,,---,0.00,VWS V14.01,2013-03-11 10:22:00,
2013-03-11 06:27:00,54.6,53.5,30.05,East,84,0.0,0.0,96,0.00,,---,0.00,VWS V14.01,2013-03-11 10:27:00,
2013-03-11 06:32:00,54.4,53.3,30.05,East,84,0.0,0.0,96,0.00,,---,0.00,VWS V14.01,2013-03-11 10:32:00,
2013-03-11 06:37:00,54.5,53.4,30.05,East,84,0.0,0.0,96,0.00,,---,0.00,VWS V14.01,2013-03-11 10:37:00,
2013-03-11 06:42:00,54.7,53.9,30.04,East,84,0.0,0.0,97,0.00,,---,0.00,VWS V14.01,2013-03-11 10:42:00,
2013-03-11 06:47:00,54.5,53.4,30.04,East,84,0.0,0.0,96,0.00,,---,0.00,VWS V14.01,2013-03-11 10:47:00,
2013-03-11 06:52:00,54.4,53.3,30.04,East,84,0.0,0.0,96,0.00,,---,0.00,VWS V14.01,2013-03-11 10:52:00,
2013-03-11 06:57:00,54.2,53.1,30.04,East,84,0.0,0.0,96,0.00,,---,0.00,VWS V14.01,2013-03-11 10:57:00,
2013-03-11 07:02:00,54.1,53.0,30.04,East,84,0.0,0.0,96,0.00,,---,0.00,VWS V14.01,2013-03-11 11:02:00,
2013-03-11 07:07:00,54.2,53.4,30.04,East,84,0.0,0.0,97,0.00,,---,0.00,VWS V14.01,2013-03-11 11:07:00,
2013-03-11 07:12:00,54.2,53.4,30.05,East,84,0.0,0.0,97,0.00,,---,0.00,VWS V14.01,2013-03-11 11:12:00,
2013-03-11 07:17:00,54.2,53.4,30.05,East,84,0.0,0.0,97,0.00,,---,0.00,VWS V14.01,2013-03-11 11:17:00,
2013-03-11 07:22:00,54.1,53.3,30.05,East,84,0.0,0.0,97,0.00,,---,0.00,VWS V14.01,2013-03-11 11:22:00,
2013-03-11 07:27:00,54.1,53.3,30.04,East,84,0.0,0.0,97,0.00,,---,0.00,VWS V14.01,2013-03-11 11:27:00,
2013-03-11 07:32:00,54.1,53.3,30.05,East,84,0.0,0.0,97,0.00,,---,0.00,VWS V14.01,2013-03-11 11:32:00,
2013-03-11 07:37:00,54.2,53.4,30.05,East,84,0.0,0.0,97,0.00,,---,0.00,VWS V14.01,2013-03-11 11:37:00,
2013-03-11 07:42:00,54.4,53.6,30.05,East,84,0.0,1.0,97,0.00,,---,0.00,VWS V14.01,2013-03-11 11:42:00,
2013-03-11 07:48:00,54.6,53.8,30.05,East,84,0.0,1.0,97,0.00,,---,0.00,VWS V14.01,2013-03-11 11:48:00,
2013-03-11 07:53:00,55.0,54.5,30.05,East,84,0.0,1.0,98,0.00,,---,0.00,VWS V14.01,2013-03-11 11:53:00,
2013-03-11 07:58:00,55.0,54.2,30.05,East,84,0.0,1.0,97,0.00,,---,0.00,VWS V14.01,2013-03-11 11:58:00,
2013-03-11 08:03:00,55.0,54.2,30.06,East,83,0.0,0.0,97,0.00,,---,0.00,VWS V14.01,2013-03-11 12:03:00,
2013-03-11 08:08:00,55.1,54.3,30.06,East,83,0.0,0.0,97,0.00,,---,0.00,VWS V14.01,2013-03-11 12:08:00,
2013-03-11 08:13:00,55.4,54.6,30.06,East,84,0.0,0.0,97,0.00,,---,0.00,VWS V14.01,2013-03-11 12:13:00,
2013-03-11 08:18:00,56.4,55.8,30.06,East,84,0.0,0.0,98,0.00,,---,0.00,VWS V14.01,2013-03-11 12:18:00,
2013-03-11 08:23:00,56.9,56.3,30.05,East,84,0.0,0.0,98,0.00,,---,0.00,VWS V14.01,2013-03-11 12:23:00,
2013-03-11 08:28:00,57.3,56.7,30.06,East,84,0.0,0.0,98,0.00,,---,0.00,VWS V14.01,2013-03-11 12:28:00,
2013-03-11 08:33:00,57.7,57.1,30.06,East,83,0.0,0.0,98,0.00,,---,0.00,VWS V14.01,2013-03-11 12:33:00,
2013-03-11 08:38:00,58.3,57.7,30.06,East,84,0.0,0.0,98,0.00,,---,0.00,VWS V14.01,2013-03-11 12:38:00,
2013-03-11 08:43:00,58.8,58.2,30.06,East,84,0.0,0.0,98,0.00,,---,0.00,VWS V14.01,2013-03-11 12:43:00,
2013-03-11 08:49:00,59.4,58.8,30.07,East,84,0.0,0.0,98,0.00,,---,0.00,VWS V14.01,2013-03-11 12:49:00,
2013-03-11 08:54:00,60.0,59.4,30.07,East,83,0.0,0.0,98,0.00,,---,0.00,VWS V14.01,2013-03-11 12:54:00,
2013-03-11 08:59:00,60.5,59.9,30.06,East,84,0.0,0.0,98,0.00,,---,0.00,VWS V14.01,2013-03-11 12:59:00,
2013-03-11 09:04:00,61.2,60.6,30.07,ESE,107,0.0,1.0,98,0.00,,---,0.00,VWS V14.01,2013-03-11 13:04:00,
2013-03-11 09:09:00,62.0,61.1,30.07,SSE,150,0.0,1.0,97,0.00,,---,0.00,VWS V14.01,2013-03-11 13:09:00,
2013-03-11 09:14:00,62.9,61.2,30.07,SE,134,0.0,1.0,94,0.00,,---,0.00,VWS V14.01,2013-03-11 13:14:00,
2013-03-11 09:19:00,63.9,61.2,30.07,ESE,119,0.0,1.0,91,0.00,,---,0.00,VWS V14.01,2013-03-11 13:19:00,
2013-03-11 09:24:00,65.1,61.1,30.06,East,81,0.0,2.0,87,0.00,,---,0.00,VWS V14.01,2013-03-11 13:24:00,
2013-03-11 09:29:00,66.2,61.2,30.06,South,172,2.0,2.0,84,0.00,,---,0.00,VWS V14.01,2013-03-11 13:29:00,
2013-03-11 09:34:00,67.2,61.2,30.07,SE,141,1.0,2.0,81,0.00,,---,0.00,VWS V14.01,2013-03-11 13:34:00,
2013-03-11 09:39:00,68.2,60.7,30.07,SE,136,1.0,2.0,77,0.00,,---,0.00,VWS V14.01,2013-03-11 13:39:00,
2013-03-11 09:44:00,68.8,59.8,30.07,ENE,68,2.0,4.0,73,0.00,,---,0.00,VWS V14.01,2013-03-11 13:44:00,
2013-03-11 09:49:00,69.4,59.6,30.06,NE,44,0.0,4.0,71,0.00,,---,0.00,VWS V14.01,2013-03-11 13:49:00,
2013-03-11 09:54:00,69.8,59.2,30.07,SSE,148,2.0,4.0,69,0.00,,---,0.00,VWS V14.01,2013-03-11 13:54:00,
2013-03-11 10:00:00,70.3,59.7,30.07,ESE,120,1.0,4.0,69,0.00,,---,0.00,VWS V14.01,2013-03-11 14:00:00,
2013-03-11 10:05:00,70.9,59.4,30.07,SSW,195,1.0,4.0,67,0.00,,---,0.00,VWS V14.01,2013-03-11 14:05:00,
2013-03-11 10:10:00,71.4,59.5,30.07,ESE,109,2.0,4.0,66,0.00,,---,0.00,VWS V14.01,2013-03-11 14:10:00,
2013-03-11 10:15:00,71.9,59.1,30.07,SW,217,2.0,4.0,64,0.00,,---,0.00,VWS V14.01,2013-03-11 14:15:00,
2013-03-11 10:20:00,72.3,59.0,30.07,SE,125,2.0,3.0,63,0.00,,---,0.00,VWS V14.01,2013-03-11 14:20:00,
2013-03-11 10:25:00,72.4,58.2,30.07,ESE,112,1.0,6.0,61,0.00,,---,0.00,VWS V14.01,2013-03-11 14:25:00,
2013-03-11 10:30:00,72.8,58.6,30.07,SSE,149,1.0,6.0,61,0.00,,---,0.00,VWS V14.01,2013-03-11 14:30:00,
2013-03-11 10:35:00,73.0,57.8,30.07,SW,214,3.0,8.0,59,0.00,,---,0.00,VWS V14.01,2013-03-11 14:35:00,
2013-03-11 10:40:00,73.2,57.5,30.07,WSW,258,2.0,8.0,58,0.00,,---,0.00,VWS V14.01,2013-03-11 14:40:00,
2013-03-11 10:45:00,73.5,58.8,30.07,East,98,2.0,8.0,60,0.00,,---,0.00,VWS V14.01,2013-03-11 14:45:00,
2013-03-11 10:50:00,73.9,57.7,30.07,SSW,197,3.0,8.0,57,0.00,,---,0.00,VWS V14.01,2013-03-11 14:50:00,
2013-03-11 10:55:00,73.8,57.6,30.07,SSE,153,3.0,10.0,57,0.00,,---,0.00,VWS V14.01,2013-03-11 14:55:00,
2013-03-11 11:00:00,73.9,57.2,30.07,SSE,150,2.0,10.0,56,0.00,,---,0.00,VWS V14.01,2013-03-11 15:00:00,
2013-03-11 11:05:00,73.9,57.2,30.06,ESE,107,1.0,8.0,56,0.00,,---,0.00,VWS V14.01,2013-03-11 15:05:00,
2013-03-11 11:10:00,73.9,57.7,30.07,SE,131,3.0,8.0,57,0.00,,---,0.00,VWS V14.01,2013-03-11 15:10:00,
2013-03-11 11:15:00,74.0,57.8,30.07,South,169,1.0,9.0,57,0.00,,---,0.00,VWS V14.01,2013-03-11 15:15:00,
2013-03-11 11:20:00,74.3,57.6,30.06,SW,218,3.0,9.0,56,0.00,,---,0.00,VWS V14.01,2013-03-11 15:20:00,
2013-03-11 11:25:00,74.6,57.4,30.07,East,86,1.0,9.0,55,0.00,,---,0.00,VWS V14.01,2013-03-11 15:25:00,
2013-03-11 11:30:00,74.4,57.7,30.07,NNE,29,2.0,9.0,56,0.00,,---,0.00,VWS V14.01,2013-03-11 15:30:00,
2013-03-11 11:36:00,74.5,57.3,30.06,East,97,3.0,10.0,55,0.00,,---,0.00,VWS V14.01,2013-03-11 15:36:00,
2013-03-11 11:41:00,74.9,58.2,30.06,WSW,257,1.0,10.0,56,0.00,,---,0.00,VWS V14.01,2013-03-11 15:41:00,
2013-03-11 11:46:00,75.2,56.4,30.06,East,97,3.0,10.0,52,0.00,,---,0.00,VWS V14.01,2013-03-11 15:46:00,
2013-03-11 11:51:00,75.4,57.6,30.06,North,360,1.0,10.0,54,0.00,,---,0.00,VWS V14.01,2013-03-11 15:51:00,
2013-03-11 11:56:00,75.9,58.1,30.06,East,94,2.0,10.0,54,0.00,,---,0.00,VWS V14.01,2013-03-11 15:56:00,
2013-03-11 12:02:00,76.1,56.7,30.06,North,360,2.0,10.0,51,0.00,,---,0.00,VWS V14.01,2013-03-11 16:02:00,
2013-03-11 12:07:00,75.8,56.4,30.06,ESE,118,1.0,11.0,51,0.00,,---,0.00,VWS V14.01,2013-03-11 16:07:00,
2013-03-11 12:12:00,76.0,57.1,30.05,ESE,110,3.0,11.0,52,0.00,,---,0.00,VWS V14.01,2013-03-11 16:12:00,
2013-03-11 12:17:00,75.8,56.4,30.05,SE,124,2.0,11.0,51,0.00,,---,0.00,VWS V14.01,2013-03-11 16:17:00,
2013-03-11 12:22:00,76.1,56.1,30.05,NE,49,2.0,11.0,50,0.00,,---,0.00,VWS V14.01,2013-03-11 16:22:00,
2013-03-11 12:27:00,76.2,56.8,30.05,ESE,114,2.0,11.0,51,0.00,,---,0.00,VWS V14.01,2013-03-11 16:27:00,
2013-03-11 12:32:00,75.9,56.5,30.05,NE,51,7.0,7.0,51,0.00,,---,0.00,VWS V14.01,2013-03-11 16:32:00,
2013-03-11 12:37:00,75.7,56.8,30.04,North,8,3.0,9.0,52,0.00,,---,0.00,VWS V14.01,2013-03-11 16:37:00,
2013-03-11 12:42:00,75.9,56.5,30.05,SSW,212,1.0,9.0,51,0.00,,---,0.00,VWS V14.01,2013-03-11 16:42:00,
2013-03-11 12:47:00,76.5,56.5,30.05,South,175,5.0,9.0,50,0.00,,---,0.00,VWS V14.01,2013-03-11 16:47:00,
2013-03-11 12:52:00,77.0,56.4,30.05,SW,221,2.0,9.0,49,0.00,,---,0.00,VWS V14.01,2013-03-11 16:52:00,
2013-03-11 12:57:00,76.8,55.7,30.04,SSE,148,2.0,10.0,48,0.00,,---,0.00,VWS V14.01,2013-03-11 16:57:00,
2013-03-11 13:02:00,76.3,56.9,30.05,SSE,148,3.0,5.0,51,0.00,,---,0.00,VWS V14.01,2013-03-11 17:02:00,
2013-03-11 13:08:00,76.5,57.0,30.05,SW,229,4.0,6.0,51,0.00,,---,0.00,VWS V14.01,2013-03-11 17:08:00,
2013-03-11 13:13:00,76.5,57.0,30.04,ESE,122,1.0,8.0,51,0.00,,---,0.00,VWS V14.01,2013-03-11 17:13:00,
2013-03-11 13:18:00,76.5,57.6,30.04,ESE,115,3.0,8.0,52,0.00,,---,0.00,VWS V14.01,2013-03-11 17:18:00,
2013-03-11 13:23:00,76.5,58.1,30.04,SE,127,0.0,8.0,53,0.00,,---,0.00,VWS V14.01,2013-03-11 17:23:00,
2013-03-11 13:28:00,76.5,57.6,30.04,South,170,1.0,8.0,52,0.00,,---,0.00,VWS V14.01,2013-03-11 17:28:00,
2013-03-11 13:33:00,76.6,58.2,30.04,NE,54,1.0,5.0,53,0.00,,---,0.00,VWS V14.01,2013-03-11 17:33:00,
2013-03-11 13:38:00,76.6,57.7,30.03,NE,55,1.0,5.0,52,0.00,,---,0.00,VWS V14.01,2013-03-11 17:38:00,
2013-03-11 13:43:00,76.5,58.1,30.03,SSE,155,1.0,5.0,53,0.00,,---,0.00,VWS V14.01,2013-03-11 17:43:00,
2013-03-11 13:48:00,76.1,57.8,30.03,ESE,118,1.0,6.0,53,0.00,,---,0.00,VWS V14.01,2013-03-11 17:48:00,
2013-03-11 13:53:00,76.2,58.4,30.03,SW,218,2.0,8.0,54,0.00,,---,0.00,VWS V14.01,2013-03-11 17:53:00,
2013-03-11 13:58:00,76.8,57.9,30.03,ENE,77,3.0,8.0,52,0.00,,---,0.00,VWS V14.01,2013-03-11 17:58:00,
2013-03-11 14:03:00,76.6,58.2,30.03,South,183,2.0,7.0,53,0.00,,---,0.00,VWS V14.01,2013-03-11 18:03:00,
2013-03-11 14:08:00,76.5,58.1,30.03,ESE,108,0.0,7.0,53,0.00,,---,0.00,VWS V14.01,2013-03-11 18:08:00,
2013-03-11 14:13:00,76.5,58.6,30.03,SSE,147,2.0,7.0,54,0.00,,---,0.00,VWS V14.01,2013-03-11 18:13:00,
2013-03-11 14:18:00,76.7,58.8,30.03,North,11,2.0,7.0,54,0.00,,---,0.00,VWS V14.01,2013-03-11 18:18:00,
2013-03-11 14:23:00,76.2,58.4,30.03,ENE,71,2.0,7.0,54,0.00,,---,0.00,VWS V14.01,2013-03-11 18:23:00,
2013-03-11 14:28:00,75.7,58.4,30.03,South,179,0.0,7.0,55,0.00,,---,0.00,VWS V14.01,2013-03-11 18:28:00,
2013-03-11 14:34:00,76.1,59.3,30.02,SE,145,1.0,4.0,56,0.00,,---,0.00,VWS V14.01,2013-03-11 18:34:00,
2013-03-11 14:39:00,76.2,59.4,30.02,SSE,149,2.0,6.0,56,0.00,,---,0.00,VWS V14.01,2013-03-11 18:39:00,
2013-03-11 14:44:00,75.9,59.1,30.02,SE,131,1.0,6.0,56,0.00,,---,0.00,VWS V14.01,2013-03-11 18:44:00,
2013-03-11 14:49:00,76.2,59.4,30.02,SSE,153,2.0,6.0,56,0.00,,---,0.00,VWS V14.01,2013-03-11 18:49:00,
2013-03-11 14:54:00,76.6,59.8,30.02,South,180,2.0,6.0,56,0.00,,---,0.00,VWS V14.01,2013-03-11 18:54:00,
2013-03-11 14:59:00,76.0,59.2,30.01,East,100,2.0,7.0,56,0.00,,---,0.00,VWS V14.01,2013-03-11 18:59:00,
2013-03-11 15:04:00,75.7,59.4,30.01,SW,225,3.0,5.0,57,0.00,,---,0.00,VWS V14.01,2013-03-11 19:04:00,
2013-03-11 15:09:00,75.3,59.5,30.01,ESE,119,1.0,5.0,58,0.00,,---,0.00,VWS V14.01,2013-03-11 19:09:00,
2013-03-11 15:14:00,75.4,59.6,30.01,ESE,116,3.0,5.0,58,0.00,,---,0.00,VWS V14.01,2013-03-11 19:14:00,
2013-03-11 15:19:00,75.6,59.3,30.01,South,188,1.0,5.0,57,0.00,,---,0.00,VWS V14.01,2013-03-11 19:19:00,
2013-03-11 15:24:00,75.6,59.8,30.01,SE,140,0.0,5.0,58,0.00,,---,0.00,VWS V14.01,2013-03-11 19:24:00,
2013-03-11 15:29:00,75.4,59.6,30.00,South,172,3.0,6.0,58,0.00,,---,0.00,VWS V14.01,2013-03-11 19:29:00,
2013-03-11 15:34:00,75.2,59.9,30.00,SSE,160,2.0,4.0,59,0.00,,---,0.00,VWS V14.01,2013-03-11 19:34:00,
2013-03-11 15:39:00,75.8,60.0,29.99,East,84,1.0,5.0,58,0.00,,---,0.00,VWS V14.01,2013-03-11 19:39:00,
2013-03-11 15:45:00,76.2,60.4,29.99,SE,145,2.0,5.0,58,0.00,,---,0.00,VWS V14.01,2013-03-11 19:45:00,
2013-03-11 15:50:00,76.5,61.1,29.99,SSW,198,2.0,5.0,59,0.00,,---,0.00,VWS V14.01,2013-03-11 19:50:00,
2013-03-11 15:55:00,76.5,60.6,29.98,ESE,120,1.0,5.0,58,0.00,,---,0.00,VWS V14.01,2013-03-11 19:55:00,
2013-03-11 16:00:00,76.3,60.9,29.98,South,188,2.0,6.0,59,0.00,,---,0.00,VWS V14.01,2013-03-11 20:00:00,
2013-03-11 16:05:00,75.4,60.6,29.98,SW,218,4.0,7.0,60,0.00,,---,0.00,VWS V14.01,2013-03-11 20:05:00,
2013-03-11 16:10:00,74.8,60.9,29.98,South,170,1.0,7.0,62,0.00,,---,0.00,VWS V14.01,2013-03-11 20:10:00,
2013-03-11 16:15:00,74.7,60.8,29.98,SSE,166,2.0,7.0,62,0.00,,---,0.00,VWS V14.01,2013-03-11 20:15:00,
2013-03-11 16:20:00,74.5,60.6,29.98,SE,131,2.0,9.0,62,0.00,,---,0.00,VWS V14.01,2013-03-11 20:20:00,
2013-03-11 16:25:00,74.4,61.0,29.98,SSE,167,3.0,9.0,63,0.00,,---,0.00,VWS V14.01,2013-03-11 20:25:00,
2013-03-11 16:30:00,74.6,61.2,29.97,WNW,285,1.0,9.0,63,0.00,,---,0.00,VWS V14.01,2013-03-11 20:30:00,
2013-03-11 16:36:00,74.8,60.9,29.97,ENE,57,2.0,10.0,62,0.00,,---,0.00,VWS V14.01,2013-03-11 20:36:00,
2013-03-11 16:41:00,74.4,61.0,29.97,SSE,150,1.0,10.0,63,0.00,,---,0.00,VWS V14.01,2013-03-11 20:41:00,
2013-03-11 16:46:00,74.1,60.7,29.97,ENE,74,2.0,4.0,63,0.00,,---,0.00,VWS V14.01,2013-03-11 20:46:00,
2013-03-11 16:51:00,74.1,61.2,29.97,NE,45,2.0,6.0,64,0.00,,---,0.00,VWS V14.01,2013-03-11 20:51:00,
2013-03-11 16:56:00,74.1,61.2,29.97,ESE,115,1.0,6.0,64,0.00,,---,0.00,VWS V14.01,2013-03-11 20:56:00,
2013-03-11 17:01:00,73.9,61.0,29.97,SSE,166,1.0,6.0,64,0.00,,---,0.00,VWS V14.01,2013-03-11 21:01:00,
2013-03-11 17:07:00,73.9,61.0,29.96,ESE,111,1.0,6.0,64,0.00,,---,0.00,VWS V14.01,2013-03-11 21:07:00,
2013-03-11 17:12:00,73.8,60.9,29.96,South,177,4.0,6.0,64,0.00,,---,0.00,VWS V14.01,2013-03-11 21:12:00,
2013-03-11 17:17:00,74.2,61.2,29.96,ESE,120,1.0,6.0,64,0.00,,---,0.00,VWS V14.01,2013-03-11 21:17:00,
2013-03-11 17:22:00,74.5,61.1,29.95,SE,144,3.0,8.0,63,0.00,,---,0.00,VWS V14.01,2013-03-11 21:22:00,
2013-03-11 17:27:00,73.9,61.0,29.95,SE,141,1.0,8.0,64,0.00,,---,0.00,VWS V14.01,2013-03-11 21:27:00,
2013-03-11 17:32:00,73.7,61.2,29.95,ESE,121,2.0,3.0,65,0.00,,---,0.00,VWS V14.01,2013-03-11 21:32:00,
2013-03-11 17:37:00,73.7,61.2,29.95,SSE,165,3.0,8.0,65,0.00,,---,0.00,VWS V14.01,2013-03-11 21:37:00,
2013-03-11 17:42:00,73.5,61.0,29.96,SE,140,2.0,8.0,65,0.00,,---,0.00,VWS V14.01,2013-03-11 21:42:00,
2013-03-11 17:47:00,73.4,61.4,29.96,SE,124,1.0,8.0,66,0.00,,---,0.00,VWS V14.01,2013-03-11 21:47:00,
2013-03-11 17:52:00,73.5,61.5,29.96,SE,129,4.0,8.0,66,0.00,,---,0.00,VWS V14.01,2013-03-11 21:52:00,
2013-03-11 17:57:00,73.3,61.3,29.96,East,80,2.0,8.0,66,0.00,,---,0.00,VWS V14.01,2013-03-11 21:57:00,
2013-03-11 18:03:00,73.1,61.5,29.96,SSE,158,1.0,4.0,67,0.00,,---,0.00,VWS V14.01,2013-03-11 22:03:00,
2013-03-11 18:08:00,72.9,61.3,29.96,ENE,63,7.0,8.0,67,0.00,,---,0.00,VWS V14.01,2013-03-11 22:08:00,
2013-03-11 18:13:00,72.5,61.3,29.96,South,177,2.0,8.0,68,0.00,,---,0.00,VWS V14.01,2013-03-11 22:13:00,
2013-03-11 18:18:00,72.2,61.5,29.96,ENE,65,1.0,8.0,69,0.00,,---,0.00,VWS V14.01,2013-03-11 22:18:00,
2013-03-11 18:23:00,72.0,61.7,29.96,North,357,1.0,8.0,70,0.00,,---,0.00,VWS V14.01,2013-03-11 22:23:00,
2013-03-11 18:28:00,71.8,61.5,29.97,SSE,149,2.0,8.0,70,0.00,,---,0.00,VWS V14.01,2013-03-11 22:28:00,
2013-03-11 18:33:00,71.8,61.5,29.97,NE,51,4.0,4.0,70,0.00,,---,0.00,VWS V14.01,2013-03-11 22:33:00,
2013-03-11 18:38:00,71.8,61.9,29.96,South,174,2.0,4.0,71,0.00,,---,0.00,VWS V14.01,2013-03-11 22:38:00,
2013-03-11 18:43:00,71.8,61.9,29.97,SSE,160,0.0,4.0,71,0.00,,---,0.00,VWS V14.01,2013-03-11 22:43:00,
2013-03-11 18:48:00,71.7,61.8,29.97,SE,136,1.0,8.0,71,0.00,,---,0.00,VWS V14.01,2013-03-11 22:48:00,
2013-03-11 18:53:00,71.5,61.6,29.96,ENE,65,3.0,8.0,71,0.00,,---,0.00,VWS V14.01,2013-03-11 22:53:00,
2013-03-11 18:58:00,71.4,61.9,29.96,NE,51,1.0,8.0,72,0.00,,---,0.00,VWS V14.01,2013-03-11 22:58:00,
2013-03-11 19:03:00,71.2,62.1,29.96,East,94,3.0,4.0,73,0.00,,---,0.00,VWS V14.01,2013-03-11 23:03:00,
2013-03-11 19:09:00,71.1,62.0,29.96,ESE,120,1.0,4.0,73,0.00,,---,0.00,VWS V14.01,2013-03-11 23:09:00,
2013-03-11 19:14:00,71.0,61.9,29.96,East,94,1.0,4.0,73,0.00,,---,0.00,VWS V14.01,2013-03-11 23:14:00,
2013-03-11 19:19:00,71.0,62.3,29.96,North,356,1.0,4.0,74,0.00,,---,0.00,VWS V14.01,2013-03-11 23:19:00,
2013-03-11 19:24:00,70.9,62.2,29.96,ESE,112,2.0,4.0,74,0.00,,---,0.00,VWS V14.01,2013-03-11 23:24:00,
2013-03-11 19:29:00,70.8,62.5,29.96,East,87,2.0,5.0,75,0.00,,---,0.00,VWS V14.01,2013-03-11 23:29:00,
2013-03-11 19:34:00,70.7,62.4,29.96,South,179,1.0,3.0,75,0.00,,---,0.00,VWS V14.01,2013-03-11 23:34:00,
2013-03-11 19:39:00,70.6,62.7,29.96,ESE,114,0.0,6.0,76,0.00,,---,0.00,VWS V14.01,2013-03-11 23:39:00,
2013-03-11 19:44:00,70.6,62.7,29.96,SE,138,1.0,6.0,76,0.00,,---,0.00,VWS V14.01,2013-03-11 23:44:00,
2013-03-11 19:49:00,70.4,62.5,29.95,SE,145,2.0,6.0,76,0.00,,---,0.00,VWS V14.01,2013-03-11 23:49:00,
2013-03-11 19:54:00,70.4,62.5,29.96,South,176,3.0,6.0,76,0.00,,---,0.00,VWS V14.01,2013-03-11 23:54:00,
2013-03-11 19:59:00,70.3,62.4,29.96,SW,228,1.0,6.0,76,0.00,,---,0.00,VWS V14.01,2013-03-11 23:59:00,
2013-03-11 20:04:00,70.2,62.3,29.95,SE,127,1.0,4.0,76,0.00,,---,0.00,VWS V14.01,2013-03-12 00:04:00,
2013-03-11 20:09:00,70.1,62.2,29.95,ESE,117,2.0,4.0,76,0.00,,---,0.00,VWS V14.01,2013-03-12 00:09:00,
2013-03-11 20:14:00,70.0,62.1,29.95,ESE,115,1.0,4.0,76,0.00,,---,0.00,VWS V14.01,2013-03-12 00:14:00,
2013-03-11 20:19:00,69.9,62.0,29.95,ESE,108,0.0,4.0,76,0.00,,---,0.00,VWS V14.01,2013-03-12 00:19:00,
2013-03-11 20:24:00,69.8,61.9,29.95,ESE,120,1.0,4.0,76,0.00,,---,0.00,VWS V14.01,2013-03-12 00:24:00,
2013-03-11 20:30:00,69.6,61.7,29.95,ESE,105,2.0,6.0,76,0.00,,---,0.00,VWS V14.01,2013-03-12 00:30:00,
2013-03-11 20:35:00,69.5,62.0,29.95,SSE,148,0.0,2.0,77,0.00,,---,0.00,VWS V14.01,2013-03-12 00:35:00,
2013-03-11 20:40:00,69.4,61.9,29.95,SE,127,0.0,2.0,77,0.00,,---,0.00,VWS V14.01,2013-03-12 00:40:00,
2013-03-11 20:45:00,69.3,61.8,29.95,SE,128,0.0,2.0,77,0.00,,---,0.00,VWS V14.01,2013-03-12 00:45:00,
2013-03-11 20:50:00,69.1,61.6,29.95,ESE,119,0.0,2.0,77,0.00,,---,0.00,VWS V14.01,2013-03-12 00:50:00,
2013-03-11 20:55:00,69.1,61.6,29.95,SE,128,1.0,4.0,77,0.00,,---,0.00,VWS V14.01,2013-03-12 00:55:00,
2013-03-11 21:00:00,69.0,61.5,29.95,ESE,122,0.0,4.0,77,0.00,,---,0.00,VWS V14.01,2013-03-12 01:00:00,
2013-03-11 21:05:00,68.9,61.4,29.95,SE,127,0.0,2.0,77,0.00,,---,0.00,VWS V14.01,2013-03-12 01:05:00,
2013-03-11 21:10:00,68.9,61.0,29.95,ESE,112,0.0,3.0,76,0.00,,---,0.00,VWS V14.01,2013-03-12 01:10:00,
2013-03-11 21:15:00,68.8,60.9,29.96,SSE,148,0.0,4.0,76,0.00,,---,0.00,VWS V14.01,2013-03-12 01:15:00,
2013-03-11 21:20:00,68.7,60.8,29.96,SE,136,0.0,4.0,76,0.00,,---,0.00,VWS V14.01,2013-03-12 01:20:00,
2013-03-11 21:25:00,68.6,60.7,29.96,SE,140,1.0,4.0,76,0.00,,---,0.00,VWS V14.01,2013-03-12 01:25:00,
2013-03-11 21:30:00,68.5,61.0,29.96,SE,127,0.0,4.0,77,0.00,,---,0.00,VWS V14.01,2013-03-12 01:30:00,
2013-03-11 21:35:00,68.5,61.0,29.96,ESE,116,1.0,1.0,77,0.00,,---,0.00,VWS V14.01,2013-03-12 01:35:00,
2013-03-11 21:40:00,68.4,60.9,29.97,SSE,152,0.0,1.0,77,0.00,,---,0.00,VWS V14.01,2013-03-12 01:40:00,
2013-03-11 21:45:00,68.3,60.8,29.97,SE,137,0.0,2.0,77,0.00,,---,0.00,VWS V14.01,2013-03-12 01:45:00,
2013-03-11 21:50:00,68.3,60.8,29.97,SSE,147,3.0,4.0,77,0.00,,---,0.00,VWS V14.01,2013-03-12 01:50:00,
2013-03-11 21:56:00,68.2,60.7,29.97,SE,138,1.0,4.0,77,0.00,,---,0.00,VWS V14.01,2013-03-12 01:56:00,
2013-03-11 22:01:00,68.2,60.7,29.98,South,177,0.0,4.0,77,0.00,,---,0.00,VWS V14.01,2013-03-12 02:01:00,
2013-03-11 22:06:00,68.2,60.7,29.98,SSE,156,1.0,3.0,77,0.00,,---,0.00,VWS V14.01,2013-03-12 02:06:00,
2013-03-11 22:11:00,68.2,60.7,29.98,SSE,149,0.0,6.0,77,0.00,,---,0.00,VWS V14.01,2013-03-12 02:11:00,
2013-03-11 22:16:00,68.0,60.5,29.98,SSE,163,0.0,6.0,77,0.00,,---,0.00,VWS V14.01,2013-03-12 02:16:00,
2013-03-11 22:21:00,67.8,60.7,29.99,South,173,0.0,6.0,78,0.00,,---,0.00,VWS V14.01,2013-03-12 02:21:00,
2013-03-11 22:26:00,67.7,60.6,29.99,SSE,149,0.0,6.0,78,0.00,,---,0.00,VWS V14.01,2013-03-12 02:26:00,
2013-03-11 22:31:00,67.6,60.5,29.99,SSE,168,0.0,6.0,78,0.00,,---,0.00,VWS V14.01,2013-03-12 02:31:00,
2013-03-11 22:37:00,67.5,60.4,29.99,SE,128,0.0,1.0,78,0.00,,---,0.00,VWS V14.01,2013-03-12 02:37:00,
2013-03-11 22:42:00,67.5,60.8,29.99,SE,136,1.0,2.0,79,0.00,,---,0.00,VWS V14.01,2013-03-12 02:42:00,
2013-03-11 22:47:00,67.6,60.5,29.99,ESE,116,1.0,8.0,78,0.00,,---,0.00,VWS V14.01,2013-03-12 02:47:00,
2013-03-11 22:52:00,67.7,60.6,29.99,SE,134,0.0,8.0,78,0.00,,---,0.00,VWS V14.01,2013-03-12 02:52:00,
2013-03-11 22:57:00,67.7,60.6,29.99,SE,137,0.0,8.0,78,0.00,,---,0.00,VWS V14.01,2013-03-12 02:57:00,
2013-03-11 23:02:00,67.6,60.5,29.99,SSE,150,1.0,1.0,78,0.00,,---,0.00,VWS V14.01,2013-03-12 03:02:00,
2013-03-11 23:07:00,67.5,60.4,29.98,SSE,149,0.0,3.0,78,0.00,,---,0.00,VWS V14.01,2013-03-12 03:07:00,
2013-03-11 23:12:00,67.5,60.8,29.98,South,185,1.0,4.0,79,0.00,,---,0.00,VWS V14.01,2013-03-12 03:12:00,
2013-03-11 23:17:00,67.4,60.7,29.98,SW,228,1.0,4.0,79,0.00,,---,0.00,VWS V14.01,2013-03-12 03:17:00,
2013-03-11 23:22:00,67.4,60.7,29.99,SE,142,1.0,4.0,79,0.00,,---,0.00,VWS V14.01,2013-03-12 03:22:00,
2013-03-11 23:28:00,67.3,60.6,29.99,ESE,108,0.0,0.0,79,0.00,,---,0.00,VWS V14.01,2013-03-12 03:28:00,
2013-03-11 23:33:00,67.2,60.8,29.99,SE,140,0.0,2.0,80,0.00,,---,0.00,VWS V14.01,2013-03-12 03:33:00,
2013-03-11 23:38:00,67.1,60.7,29.99,SSW,212,1.0,6.0,80,0.00,,---,0.00,VWS V14.01,2013-03-12 03:38:00,
2013-03-11 23:43:00,67.0,60.6,29.98,SE,146,1.0,6.0,80,0.00,,---,0.00,VWS V14.01,2013-03-12 03:43:00,
2013-03-11 23:48:00,66.9,60.5,29.99,East,80,1.0,6.0,80,0.00,,---,0.00,VWS V14.01,2013-03-12 03:48:00,
2013-03-11 23:53:00,66.8,60.8,29.99,SSE,150,0.0,6.0,81,0.00,,---,0.00,VWS V14.01,2013-03-12 03:53:00,
2013-03-11 23:58:00,66.8,60.8,29.99,SE,138,0.0,6.0,81,0.00,,---,0.00,VWS V14.01,2013-03-12 03:58:00,